Location: Maccacari
(45.1333°N, 11.1333°E)
Time: 18:58:59
(UTC+00:00)

USA 234 - Pass Details

Date: 22 January 2021
Orbit: 1100 x 1107 km, 123.0° (Epoch: 01 March)

Event Time Altitude Azimuth Distance (km) Brightness Sun altitude
Exits shadow 17:11:13 13° 60° (ENE) 2,764 4.7 -11.0°
Maximum altitude 17:16:12 32° 4° (N) 1,811 4.2 -11.8°
Drops below altitude 10° 17:21:48 10° 305° (NW) 2,968 6.1 -12.8°
Sets 17:24:33 0° 296° (WNW) 3,927 7.0 -13.2°
